Flag for U.S.A. Weather past 2 weeks in El Paso, Texas, U.S.A.

Now
68 °F

Passing clouds.


Feels Like: 68 °F
Forecast: 54 / 81 °F
Wind: 10 mph from North

Location: El Paso International Airport


UV Index: 7 (High)

Visibility: 10 mi


Pressure: 29.91 "Hg

Humidity: 12%

Dew point: 13 °F

Location of El PasoLocation

Historic Weather in El Paso

°F

El Paso temperature yesterday

Maximum temperature yesterday: 86 °F (at 3:51 PM)
Minimum temperature yesterday: 67 °F (at 6:51 AM)
Average temperature yesterday: 77 °F

Past Weeks' High & Low Weather Summary

 TemperatureHumidityPressure
High88 °F (Apr 22, 2:51 PM)93% (Apr 20, 4:51 AM)30.22 "Hg (Apr 20, 4:51 AM)
Low38 °F (Apr 15, 6:51 AM)1% (Apr 10, 4:51 PM)29.52 "Hg (Apr 23, 4:51 PM)
Average69 °F23%29.83 "Hg
* Reported Apr 9 8:51 AM — Apr 24 8:51 AM, El Paso, Weather by CustomWeather, © 2014

Note: Actual official high and low records may vary slightly from our data, if they occured in-between our weather recording intervals... More about our weather records

Advertising

Historic Weather Conditions — Data for Previous 24 hours

 ConditionsComfort  
Time TempWeatherWind HumidityBarometerVisibility
8:51 AM
Apr 24
66 °FPassing clouds.9 mph13%29.90 "Hg10 mi
7:51 AM61 °FPassing clouds.5 mph17%29.88 "Hg10 mi
6:51 AM60 °FPassing clouds.3 mph16%29.83 "Hg10 mi
5:51 AM67 °FPassing clouds.15 mph11%29.76 "Hg10 mi
4:51 AM66 °FPassing clouds.12 mph11%29.73 "Hg10 mi
3:51 AM68 °FPassing clouds.21 mph10%29.71 "Hg10 mi
2:51 AM68 °FPassing clouds.10 mph11%29.70 "Hg10 mi
1:51 AM69 °FPassing clouds.12 mph11%29.72 "Hg10 mi
12:51 AM71 °FPassing clouds.14 mph11%29.70 "Hg10 mi
11:51 PM
Apr 23
73 °FPassing clouds.18 mph10%29.67 "Hg10 mi
10:51 PM75 °FPassing clouds.20 mph10%29.64 "Hg10 mi
9:51 PM76 °FPassing clouds.21 mph13%29.62 "Hg10 mi
8:51 PM78 °FPassing clouds.13 mph12%29.60 "Hg10 mi
7:51 PM80 °FPassing clouds.23 mph10%29.57 "Hg10 mi
6:51 PM82 °FPassing clouds.26 mph9%29.54 "Hg10 mi
5:51 PM84 °FPassing clouds.28 mph8%29.53 "Hg10 mi
4:51 PM85 °FPassing clouds.21 mph8%29.52 "Hg10 mi
3:51 PM86 °FPassing clouds.22 mph7%29.54 "Hg10 mi
2:51 PM85 °FPassing clouds.29 mph8%29.57 "Hg10 mi
1:51 PM84 °FPassing clouds.22 mph9%29.60 "Hg10 mi
12:51 PM81 °FPassing clouds.25 mph12%29.63 "Hg10 mi
11:51 AM80 °FPassing clouds.21 mph13%29.65 "Hg10 mi
10:51 AM76 °FScattered clouds.18 mph15%29.69 "Hg10 mi
Weather by CustomWeather, © 2014

See weather overview